Regional Weather Roundup
Issued by NWS

Home | Current Version | Previous Version | Graphics & Text | Print | Product List | Glossary On
Versions: 1 2 3 4 5 6 7 8 9 10 11 12 13 14 15 16 17 18 19 20 21 22 23 24 25 26 27 28 29 30 31 32 33 34 35 36 37 38 39 40 41 42 43 44 45 46 47 48 49 50
000
ASUS43 KMPX 301610
RWRMN
WEATHER ROUNDUP FOR MINNESOTA
NATIONAL WEATHER SERVICE TWIN CITIES/CHANHASSEN MN
1100 AM CDT SUN AUG 30 2015


NOTE: "FAIR" INDICATES FEW OR NO CLOUDS BELOW 12,000 FEET WITH NO
SIGNIFICANT WEATHER AND/OR OBSTRUCTIONS TO VISIBILITY. N/A MEANS
CURRENT SKY AND/OR WEATHER CONDITIONS ARE NOT AVAILABLE.

MNZ060>063-068>070-301700-
   Twin Cities Metro

CITY           SKY/WX    TMP DP  RH WIND       PRES   REMARKS
TWIN CITIES    MOSUNNY   68  60  75 S6        30.01S
ST PAUL        SUNNY     69  62  78 S8        30.01S
CRYSTAL        SUNNY     70  60  70 S10       29.99S
BLAINE         MOSUNNY   70  64  83 S10       30.00
LAKEVILLE      CLOUDY    66  63  88 S6        30.02S
EDEN PRAIRIE   MOSUNNY   68  61  78 S10       30.00S
SOUTH ST PAUL  MOSUNNY   68  61  77 S7        30.01S
LAKE ELMO      PTSUNNY   68  63  83 S12       30.02S
$$
MNZ001>005-007-008-013>017-022>024-027-028-301700-
   Northwest Minnesota

CITY           SKY/WX    TMP DP  RH WIND       PRES   REMARKS
BEMIDJI        MOSUNNY   71  64  80 S8        29.88S
HALLOCK        MOSUNNY   73  68  83 S18       29.74F
ROSEAU         PTSUNNY   73  66  78 S10       29.80
WARROAD        CLOUDY    73  68  83 S6        29.81S
THIEF RVR FALL PTSUNNY  N/A N/A N/A S8        29.80S
CROOKSTON      MOSUNNY   75  66  73 S17G24    29.80S
FOSSTON        MOSUNNY   75  63  64 S14       29.84F
DETROIT LAKES  SUNNY     72  63  73 S14       29.88F
MOORHEAD       SUNNY     72  64  78 S18       29.84S
PARK RAPIDS    SUNNY     72  62  71 S10       29.90S
MAHNOMEN       FAIR      73  65  75 S13       29.85S
$$
MNZ006-009>011-018-025>026-301700-
   North Central Minnesota

CITY           SKY/WX    TMP DP  RH WIND       PRES   REMARKS
BAUDETTE       CLOUDY    73  66  78 SW10      29.82S
FLAG ISLAND    PTSUNNY   70  64  83 S9        29.80S
INTL FALLS     MOSUNNY   72  66  81 VRB7      29.85S
WASKISH        PTSUNNY   73  66  78 CALM      29.84R
BIG FORK       MOSUNNY   72  64  78 S7        29.89S
LONGVILLE      MOSUNNY   70  64  83 S9        29.91S
GRAND RAPIDS     N/A     68  61  77 S10       29.92S
CRANE LAKE     CLOUDY    66  63  88 S5        29.89S
ORR            MOSUNNY   70  63  78 S6        29.87S
COOK           PTSUNNY   70  64  83 S6        29.90S
WALKER         FAIR      70  63  78 S6        29.90R
$$
MNZ012-019>021-037-301700-
   Northeast Minnesota

CITY           SKY/WX    TMP DP  RH WIND       PRES   REMARKS
DULUTH         SUNNY     71  62  73 SW10      29.93F
ELY            PTSUNNY   66  63  88 S7        29.91S
HIBBING        PTSUNNY   69  63  81 S8        29.92S
EVELETH        MOSUNNY   70  63  78 S8        29.93S
DULUTH HARBOR  SUNNY     72  64  78 SW13      29.92F
TWO HARBORS    SUNNY     73  66  78 SW8       29.91F
SILVER BAY     MOSUNNY   73  64  73 S8        29.89F
GRAND MARAIS     N/A     52  51  97 W6        29.90F
G MARAIS ARPRT MOSUNNY   66  57  72 S6        29.93S
$$
MNZ029>031-032-039>041-046>048-054>057-064-301700-
   West Central Minnesota

CITY           SKY/WX    TMP DP  RH WIND       PRES   REMARKS
FERGUS FALLS   SUNNY     72  64  78 S13       29.87F
WHEATON        SUNNY     70  63  78 SE13      29.88F
MORRIS         SUNNY     72  66  83 S13       29.90S
ALEXANDRIA     SUNNY     70  63  78 S14       29.94S
ELBOW LAKE     FAIR      69  64  83 S15       29.89S
WADENA         SUNNY     72  64  78 S8        29.91S
GLENWOOD       SUNNY     70  63  78 S10       29.94F
APPLETON       SUNNY     73  64  73 S12       29.91S
BENSON         SUNNY     70  63  78 S8        29.93S
ORTONVILLE     SUNNY     70  64  83 SE7       29.90R
MADISON        SUNNY     72  64  78 SE12      29.92R
WILLMAR        FAIR      72  64  78 S7        29.97S
$$
MNZ033>034-036-042>043-049>051-058-059-301700-
   Central Minnesota

CITY           SKY/WX    TMP DP  RH WIND       PRES   REMARKS
ST CLOUD       MOSUNNY   67  61  81 S10       29.96F
SAUK CENTRE    FAIR      69  63  81 S10       29.95R
PAYNESVILLE    SUNNY     68  62  79 E10       29.97S
AITKIN         CLOUDY    68  61  77 S8        29.93S
PINE RIVER     CLOUDY    66  63  88 S7        29.95F
BRAINERD       CLOUDY    67  61  81 S12       29.94F
STAPLES        SUNNY     70  63  78 S8        29.92F
LONG PRAIRIE   FAIR      68  61  77 S12       29.95S
LITTLE FALLS   PTSUNNY   68  59  73 S9        29.95F
LITCHFIELD     SUNNY     70  64  83 SE3       29.97F
BUFFALO        PTSUNNY   65  59  80 S5        30.00S
MAPLE LAKE     MOSUNNY   67  63  86 S6        29.99F
$$
MNZ037-044-045-052-053-301700-
   East Central Minnesota

CITY           SKY/WX    TMP DP  RH WIND       PRES   REMARKS
PRINCETON      MOSUNNY   70  63  78 S9        29.98S
MORA           CLOUDY    64  59  82 S8        29.99F
CAMBRIDGE      MOSUNNY   70  57  64 S7        29.97S
RUSH CITY      SUNNY     69  62  77 S8        29.98F
MOOSE LAKE     SUNNY     70  61  73 SW9       29.94S
HINCKLEY       FAIR      68  63  83 S8        29.97F
CLOQUET        SUNNY     70  61  73 SW10      29.94F
MCGREGOR       SUNNY     70  61  73 S9        29.94F
$$
MNZ071>073-080-081-089-090-097-098-301700-
   Southwest Minnesota

CITY           SKY/WX    TMP DP  RH WIND       PRES   REMARKS
MONTEVIDEO     SUNNY     72  66  83 SW10      29.95F
GRANITE FALLS  SUNNY     70  64  82 SE12      29.97S
CANBY          SUNNY     74  63  68 SW7       29.93S
MARSHALL       SUNNY     70  61  73 S10       29.97S
REDWOOD FALLS  SUNNY     70  62  76 S13       29.97S
OLIVIA         SUNNY     68  61  77 S12       29.96F
PIPESTONE      PTSUNNY   66  63  88 SW9       29.99S FOG
WINDOM         SUNNY     70  61  73 S9        30.01S
WORTHINGTON    SUNNY     66  61  82 S10       30.01S
JACKSON        SUNNY     68  63  83 S9        30.03F
TRACY          SUNNY     69  64  81 S10G17    29.98S HAZE
SLAYTON        MOSUNNY   66  63  88 CALM      30.01S
$$
MNZ065>067-074>077-082>085-091>093-301700-
   South Central Minnesota

CITY           SKY/WX    TMP DP  RH WIND       PRES   REMARKS
MANKATO        PTSUNNY   64  61  88 S9        30.02S
NEW ULM        SUNNY     66  63  88 S9        30.00S
ST JAMES       MOSUNNY   68  63  83 S9        30.02F
FAIRMONT       PTSUNNY   66  57  72 S12       30.04R
GLENCOE        MOSUNNY   68  63  84 S7        29.99F
FARIBAULT      CLOUDY    64  61  88 S7        30.04R
OWATONNA       PTSUNNY   66  61  82 S12       30.04S
WASECA         CLOUDY    63  59  88 S9        30.05S
ALBERT LEA     CLOUDY    66  63  88 SW6       30.06R
$$
MNZ078>079-086>088-094>096-301700-
   Southeast Minnesota

CITY           SKY/WX    TMP DP  RH WIND       PRES   REMARKS
ROCHESTER      CLOUDY    66  62  87 S13       30.07R
RED WING       CLOUDY    70  64  83 S6        30.02S
STANTON        CLOUDY    67  61  80 S8        30.02S
DODGE CENTER   CLOUDY    64  61  88 SW3G9     30.06R
WINONA         CLOUDY    64  64 100 SW5       30.06R
AUSTIN         CLOUDY    64  63  94 S10       30.06S
PRESTON        CLOUDY    63  61  94 S8        30.08R FOG
$$
ABBREVIATIONS USED IN REMARKS
   TC - TEMPERATURES IN CELSIUS
  WCI - WIND CHILL INDEX
   HX - HEAT INDEX
  VSB - VISIBILITY
$$


USA.gov is the U.S. government's official web portal to all federal, state and local government web resources and services.